COSMOS 1275 DEB

Satellite information

Favourite Embed

Satellite Type and Status

DEBRISIN ORBIT

Key statistics

Satellite COSMOS 1275 DEB at a glance.

Uptime

16220

Days in orbit

Revolutions

≈ 13.7

Per day

Orbit

LEO

Low Earth Orbit

Inclination

83.0

Latest

Satellite identification and parameters

Extended collection of information and parameters for COSMOS 1275 DEB.

Object identification

Identified? True

Debris? True

Object name: COSMOS 1275 DEB

International designator: 1981-053BE

Object number (NORAD): 12710

Object ID (CCSDS): 12710

Country: COMMONWEALTH OF INDEPENDENT STATES (CIS)

Current information (Y/N): Y

RCS size: MEDIUM

Orbital parameters

Period: 104.868 minutes

Inclination: 83.0058 deg

SMA: 7366.422 km

Apoapsis: 1071.216 km

Periapsis: 905.358 km

RAAN: 70.1019 deg

Eccentricy: 0.01125771

Argument of periapsis: 265.8372 deg

Mean anomaly: 92.9911 deg

Mean motion: 13.73149582 rev/day

Mean motion (dot): 0.00002003 rev/day2

B* drag term: 0.0020547102 1/REarth

Two-line elements (TLE)

Creation date: Oct. 31, 2025, 3 a.m.

Reference frame: TEME

Reference center: EARTH

Epoch: Oct. 30, 2025, 5:42 p.m. UTC

TLE line 0: 0 COSMOS 1275 DEB

TLE line 1: 1 12710U 81053BE 25303.73773976 .00002003 00000-0 20547-2 0 9995

TLE line 2: 2 12710 83.0058 70.1019 0112577 265.8372 92.9911 13.73149582198317

Live tracking on map

Real-time ground track for satellite COSMOS 1275 DEB.

In-orbit conjunctions

A list of the most updated potential collisions computed for object COSMOS 1275 DEB.

Target Orbit TCA Probability of collision Miss distance Type
COSMOS 1459 LEO 2025-10-01 20:42:08 0.006634615 130.0 (m) PAYLOAD
NIMBUS 2 DEB SSO 2025-05-14 08:15:01 0.0001656662 130.0 (m) DEBRIS

Associated space launch

Navigation satellite providing location information for the Tsiklon-B navigation system

COSMOS 1275 DEB was lifted into orbit during the mission ‘Kosmos-3M | Parus 27’, on board a Kosmos-3M space rocket.

The launch took place on June 4, 1981, 3:41 p.m. from 132/2.

For more information about the launch, click the button.

Launch to space Kosmos-3M | Parus 27
Kosmos-3M | Parus 27

Agency: N/A

Status: Launch Successful

Launch date: June 4, 1981, 3:41 p.m. UTC

Rocket: Kosmos-3M

Launch pad: 132/2

Location: Plesetsk Cosmodrome, Russian Federation

...

Latest news about this satellite

There are no fresh news available about this satellite. Check back as we update our databases every day.


Newsletter sign-up

Weekly statistics, charts and insights to help you stay on top of the space industry.